• Join FlightAware (Why Join?)
  • Login
  • US Flag 
02:34AM EDT


 

Airport Tracker/Info


-or-


 

Live Flight TrackerFlight Track Log ✈ SWA655 ✈ 07-Jul-2013 ✈ KDAL - KSAT

Flight Track Log - Related Links

Times and Time Zones

All times are in EDT time to prevent confusion due to time zone crossing. See the SWA655 flight status page for this flight to view local times or setup timezone preferences in your user account.

Time Position Orientation Groundspeed Altitude Reporting Facility
EDT Latitude Longitude Course Direction KTS MPH feet Rate Location/Type
01:30PM 32.8333 -96.8333 157° South 168 193 1,400  Level Dallas / Fort Worth TRACON
01:30PM 32.8000 -96.8167 157° South 191 220 2,300 2,640 Climbing Dallas / Fort Worth TRACON
01:31PM 32.7667 -96.7667 128° Southeast 216 249 5,700 2,700 Climbing Dallas / Fort Worth TRACON
01:33PM 32.6567 -96.8236 204° Southwest 272 313 9,700 2,520 Climbing Fort Worth Center
01:34PM 32.5839 -96.8711 209° Southwest 299 344 12,700 2,280 Climbing Fort Worth Center
01:35PM 32.5089 -96.9158 207° Southwest 324 373 14,300 2,040 Climbing Fort Worth Center
01:36PM 32.4108 -96.9778 208° Southwest 350 403 16,800 2,220 Climbing Fort Worth Center
01:37PM 32.3297 -97.0322 210° Southwest 372 428 18,800 1,980 Climbing Fort Worth Center
01:38PM 32.2317 -97.0719 199° South 377 434 20,800 1,800 Climbing Fort Worth Center
01:39PM 32.1253 -97.0994 192° South 383 441 22,400 3,600 Climbing Fort Worth Center
01:40PM 32.0125 -97.1267 192° South 393 452 28,000 1,740 Climbing Fort Worth Center
01:41PM 31.8894 -97.1564 192° South 412 474 25,900 -360 Descending Fort Worth Center
01:42PM 31.7767 -97.1861 193° South 412 474 27,300 1,020 Climbing Fort Worth Center
01:43PM 31.6558 -97.2156 192° South 427 491 28,000 300 Climbing Fort Worth Center
01:44PM 31.5308 -97.2469 192° South 447 514 28,000  Level Houston Center
01:45PM 31.4067 -97.2772 192° South 450 518 28,000  Level Houston Center
01:46PM 31.2842 -97.3072 192° South 447 514 28,000  Level Houston Center
01:47PM 31.1619 -97.3381 192° South 446 513 28,000 -120 Level Houston Center
01:48PM 31.0214 -97.3744 193° South 445 512 27,800 -600 Descending Houston Center
01:49PM 30.9003 -97.4042 192° South 451 519 26,800 -1,020 Descending Houston Center
01:50PM 30.7825 -97.4317 191° South 438 504 25,700 -1,080 Descending Houston Center
01:52PM 30.6722 -97.4575 191° South 408 470 24,600 -840 Descending Houston Center
01:53PM 30.5639 -97.4850 192° South 399 459 24,000 -300 Descending Houston Center
01:54PM 30.4383 -97.5167 192° South 394 453 24,000 -720 Level Houston Center
01:55PM 30.3347 -97.5586 199° South 390 449 22,600 -1,560 Descending Houston Center
01:56PM 30.2389 -97.6267 212° Southwest 397 457 20,800 -1,980 Descending Houston Center
01:56PM 30.1944 -97.6597 213° Southwest 395 455 19,500 -2,280 Descending Houston Center
01:57PM 30.1444 -97.6917 209° Southwest 393 452 18,500 -2,100 Descending Houston Center
01:58PM 30.0444 -97.7600 211° Southwest 376 433 16,300 -2,040 Descending Houston Center
01:59PM 29.9583 -97.8194 211° Southwest 362 417 14,300 -1,800 Descending Houston Center
02:00PM 29.8811 -97.8969 221° Southwest 348 400 12,600 -1,380 Descending Houston Center
02:01PM 29.8472 -97.9814 245° Southwest 314 361 11,700 -1,500 Descending Houston Center
02:02PM 29.8047 -98.0806 244° Southwest 304 350 9,500 -1,740 Descending Houston Center
02:03PM 29.7753 -98.1542 245° Southwest 301 346 8,300 -1,080 Descending Houston Center
02:04PM 29.7453 -98.2372 247° West 276 318 7,500 -1,080 Descending Houston Center
02:05PM 29.7067 -98.3192 242° Southwest 255 293 6,100 -1,200 Descending Houston Center
02:06PM 29.6903 -98.4042 258° West 253 291 4,900 -1,020 Descending Houston Center
02:07PM 29.6572 -98.4644 238° Southwest 237 273 4,100 -1,140 Descending Houston Center
02:08PM 29.6183 -98.5222 232° Southwest 194 223 2,800 -1,140 Descending Houston Center
02:09PM 29.5817 -98.5336 195° South 140 161 2,000 -840 Descending Houston Center
02:10PM 29.5558 -98.5031 134° Southeast 130 150 1,200 -840 Descending Houston Center
02:12PM 29.5340 -98.4691 221° Southwest  Level Estimated
02:19PM 29.5333 -98.4667 16° North  Level FlightAware Approximate
02:20PM 29.5340 -98.4691 16° North  Level Estimated